Location: White Ridge parking lot
(35.4984°N, 106.8413°W)
Time: 02:04:17
(UTC-06:00)

CUBEBUG 2 - Visible Passes

Search period start: 22 September 2019 00:00
Search period end: 02 October 2019 00:00
Orbit: 585 x 699 km, 97.6° (Epoch: 21 September)

Date Brightness Start Highest point End Pass type
(mag) Time Alt. Az. Time Alt. Az. Time Alt. Az.
22 Sep ? 06:09:24 10° NNE 06:13:20 43° E 06:17:16 10° S visible
24 Sep ? 05:23:24 10° ENE 05:24:47 11° E 05:26:10 10° ESE visible
25 Sep ? 05:45:50 10° NE 05:49:06 22° E 05:52:23 10° SSE visible
26 Sep ? 06:09:22 10° NNE 06:13:20 44° E 06:17:19 10° S visible
28 Sep ? 05:23:15 10° ENE 05:24:48 12° E 05:26:22 10° ESE visible
29 Sep ? 05:45:46 10° NE 05:49:06 23° E 05:52:28 10° SSE visible
30 Sep ? 06:09:20 10° NNE 06:13:20 45° E 06:17:23 10° S visible
01 Oct ? 06:33:19 10° N 06:37:29 88° WNW 06:41:44 10° SSW visible
